When you browse on this site, cookies collect data to enhance your experience and personalize the content and advertising you see.
Visit our Privacy Policy to learn more. By continuing to use the site, you agree to this use of cookies and data.
  • In Schweiz
  • Länderverzeichnis
  • Für 7 Tage
  • Wassertemperatur
  • Satellitenkarten
  • Wetterkarte
  • Widgets
  • user-avatar
    Anmelden

    Stündliche Wetter Belém

    Heute, 21 November, Mittwoch

    Zeit Temperatur Niederschläge Wind Luftdruck Luftfeuchtigkeit
    00:00 +27°C° 0 mm 2 m/S 757 mmHg 84%
    01:00 +27°C° 0 mm 2 m/S 757 mmHg 86%
    02:00 +27°C° 0 mm 2 m/S 757 mmHg 87%
    03:00 +26°C° 0 mm 1 m/S 757 mmHg 88%
    04:00 +26°C° 0.1 mm 1 m/S 757 mmHg 90%
    05:00 +26°C° 0.1 mm 1 m/S 757 mmHg 91%
    06:00 +26°C° 0.1 mm 1 m/S 757 mmHg 92%
    07:00 +28°C° 0.5 mm 1 m/S 758 mmHg 84%
    08:00 +29°C° 0.5 mm 2 m/S 758 mmHg 76%
    09:00 +31°C° 0.5 mm 2 m/S 758 mmHg 69%
    10:00 +32°C° 0.6 mm 2 m/S 758 mmHg 64%
    11:00 +35°C° 0.6 mm 2 m/S 758 mmHg 59%
    12:00 +36°C° 0.6 mm 2 m/S 757 mmHg 53%
    13:00 +35°C° 0.5 mm 2 m/S 757 mmHg 56%
    14:00 +35°C° 0.5 mm 2 m/S 756 mmHg 59%
    15:00 +34°C° 0.5 mm 3 m/S 756 mmHg 62%
    16:00 +32°C° 0.6 mm 2 m/S 756 mmHg 69%
    17:00 +30°C° 0.6 mm 2 m/S 756 mmHg 77%
    18:00 +29°C° 0.6 mm 2 m/S 756 mmHg 84%
    19:00 +28°C° 0 mm 2 m/S 756 mmHg 86%
    20:00 +28°C° 0 mm 2 m/S 756 mmHg 87%
    21:00 +27°C° 0 mm 2 m/S 757 mmHg 88%
    22:00 +27°C° 0 mm 2 m/S 757 mmHg 88%
    23:00 +27°C° 0 mm 2 m/S 757 mmHg 89%

    Morgen, 22 November, Donnerstag

    Zeit Temperatur Niederschläge Wind Luftdruck Luftfeuchtigkeit
    00:00 +27°C° 0 mm 2 m/S 757 mmHg 89%
    01:00 +27°C° 0 mm 2 m/S 757 mmHg 89%
    02:00 +26°C° 0 mm 2 m/S 756 mmHg 90%
    03:00 +26°C° 0 mm 1 m/S 756 mmHg 91%
    04:00 +26°C° 0 mm 1 m/S 756 mmHg 91%
    05:00 +26°C° 0 mm 1 m/S 756 mmHg 92%
    06:00 +26°C° 0 mm 1 m/S 756 mmHg 92%
    07:00 +28°C° 0 mm 2 m/S 757 mmHg 84%
    08:00 +29°C° 0 mm 2 m/S 757 mmHg 76%
    09:00 +31°C° 0 mm 3 m/S 758 mmHg 68%
    10:00 +34°C° 0 mm 3 m/S 758 mmHg 62%
    11:00 +35°C° 0 mm 2 m/S 757 mmHg 56%
    12:00 +37°C° 0 mm 2 m/S 757 mmHg 50%
    13:00 +36°C° 0.5 mm 3 m/S 756 mmHg 55%
    14:00 +35°C° 0.5 mm 3 m/S 755 mmHg 60%
    15:00 +34°C° 0.5 mm 3 m/S 754 mmHg 65%
    16:00 +33°C° 0.8 mm 3 m/S 754 mmHg 71%
    17:00 +30°C° 0.8 mm 3 m/S 755 mmHg 77%
    18:00 +29°C° 0.8 mm 3 m/S 755 mmHg 83%
    19:00 +28°C° 0.5 mm 3 m/S 755 mmHg 85%
    20:00 +28°C° 0.5 mm 3 m/S 756 mmHg 87%
    21:00 +27°C° 0.5 mm 2 m/S 757 mmHg 88%
    22:00 +27°C° 0.2 mm 2 m/S 757 mmHg 89%
    23:00 +27°C° 0.2 mm 2 m/S 757 mmHg 89%

    übermorgen, 23 November, Freitag

    Zeit Temperatur Niederschläge Wind Luftdruck Luftfeuchtigkeit
    00:00 +27°C° 0.2 mm 2 m/S 757 mmHg 90%
    01:00 +27°C° 0 mm 2 m/S 756 mmHg 90%
    02:00 +26°C° 0 mm 2 m/S 756 mmHg 91%
    03:00 +26°C° 0 mm 1 m/S 755 mmHg 92%
    04:00 +26°C° 0 mm 1 m/S 756 mmHg 92%
    05:00 +26°C° 0 mm 2 m/S 756 mmHg 93%
    06:00 +26°C° 0 mm 2 m/S 756 mmHg 93%
    07:00 +28°C° 0 mm 2 m/S 756 mmHg 85%
    08:00 +30°C° 0 mm 3 m/S 757 mmHg 76%
    09:00 +33°C° 0 mm 3 m/S 757 mmHg 68%
    10:00 +34°C° 0.2 mm 3 m/S 757 mmHg 64%
    11:00 +35°C° 0.2 mm 3 m/S 756 mmHg 60%
    12:00 +36°C° 0.2 mm 3 m/S 756 mmHg 56%
    13:00 +35°C° 1.1 mm 3 m/S 755 mmHg 61%
    14:00 +34°C° 1.1 mm 3 m/S 754 mmHg 65%
    15:00 +33°C° 1.1 mm 3 m/S 754 mmHg 70%
    16:00 +31°C° 0.9 mm 2 m/S 754 mmHg 76%
    17:00 +30°C° 0.9 mm 2 m/S 754 mmHg 81%
    18:00 +28°C° 0.9 mm 2 m/S 754 mmHg 86%
    19:00 +28°C° 0.3 mm 2 m/S 755 mmHg 87%
    20:00 +28°C° 0.3 mm 2 m/S 756 mmHg 88%
    21:00 +27°C° 0.3 mm 2 m/S 756 mmHg 89%
    22:00 +27°C° 0 mm 2 m/S 756 mmHg 90%
    23:00 +27°C° 0 mm 2 m/S 756 mmHg 90%

    24 November, Samstag

    Zeit Temperatur Niederschläge Wind Luftdruck Luftfeuchtigkeit
    00:00 +27°C° 0 mm 2 m/S 756 mmHg 90%
    01:00 +27°C° 0.1 mm 2 m/S 756 mmHg 91%
    02:00 +26°C° 0.1 mm 1 m/S 755 mmHg 91%
    03:00 +26°C° 0.1 mm 1 m/S 755 mmHg 92%
    04:00 +26°C° 0 mm 1 m/S 755 mmHg 92%
    05:00 +26°C° 0 mm 1 m/S 755 mmHg 93%
    06:00 +26°C° 0 mm 1 m/S 756 mmHg 93%
    07:00 +28°C° 0 mm 2 m/S 756 mmHg 86%
    08:00 +29°C° 0 mm 2 m/S 757 mmHg 79%
    09:00 +31°C° 0 mm 3 m/S 757 mmHg 71%
    10:00 +31°C° 0.3 mm 3 m/S 757 mmHg 69%
    11:00 +33°C° 0.3 mm 3 m/S 757 mmHg 66%
    12:00 +34°C° 0.3 mm 3 m/S 756 mmHg 63%
    13:00 +34°C° 0.8 mm 3 m/S 755 mmHg 66%
    14:00 +33°C° 0.8 mm 3 m/S 755 mmHg 69%
    15:00 +33°C° 0.8 mm 3 m/S 754 mmHg 71%
    16:00 +31°C° 0.9 mm 2 m/S 754 mmHg 77%
    17:00 +29°C° 0.9 mm 2 m/S 754 mmHg 82%
    18:00 +28°C° 0.9 mm 2 m/S 754 mmHg 88%
    19:00 +28°C° 0.1 mm 2 m/S 755 mmHg 89%
    20:00 +27°C° 0.1 mm 2 m/S 756 mmHg 90%
    21:00 +27°C° 0.1 mm 2 m/S 756 mmHg 91%
    22:00 +27°C° 0 mm 2 m/S 756 mmHg 91%
    23:00 +27°C° 0 mm 2 m/S 756 mmHg 91%

    25 November, Sonntag

    Zeit Temperatur Niederschläge Wind Luftdruck Luftfeuchtigkeit
    00:00 +26°C° 0 mm 1 m/S 756 mmHg 92%
    01:00 +26°C° 0 mm 1 m/S 756 mmHg 92%
    02:00 +26°C° 0 mm 1 m/S 755 mmHg 92%
    03:00 +26°C° 0 mm 1 m/S 755 mmHg 93%
    04:00 +26°C° 0 mm 1 m/S 755 mmHg 93%
    05:00 +26°C° 0 mm 1 m/S 755 mmHg 93%
    06:00 +26°C° 0 mm 1 m/S 756 mmHg 94%
    07:00 +27°C° 0 mm 2 m/S 756 mmHg 87%
    08:00 +29°C° 0 mm 2 m/S 757 mmHg 80%
    09:00 +31°C° 0 mm 2 m/S 757 mmHg 72%
    10:00 +32°C° 0.3 mm 2 m/S 757 mmHg 69%
    11:00 +32°C° 0.3 mm 2 m/S 756 mmHg 66%
    12:00 +34°C° 0.3 mm 2 m/S 756 mmHg 63%
    13:00 +34°C° 1.3 mm 2 m/S 755 mmHg 67%
    14:00 +32°C° 1.3 mm 2 m/S 754 mmHg 72%
    15:00 +31°C° 1.3 mm 2 m/S 754 mmHg 77%
    16:00 +30°C° 1.1 mm 2 m/S 754 mmHg 81%
    17:00 +29°C° 1.1 mm 2 m/S 754 mmHg 85%
    18:00 +28°C° 1.1 mm 2 m/S 754 mmHg 90%
    19:00 +28°C° 0.2 mm 2 m/S 755 mmHg 91%
    20:00 +27°C° 0.2 mm 2 m/S 755 mmHg 92%
    21:00 +27°C° 0.2 mm 2 m/S 756 mmHg 93%
    22:00 +27°C° 0 mm 2 m/S 756 mmHg 93%
    23:00 +27°C° 0 mm 2 m/S 756 mmHg 93%

    26 November, Montag

    Zeit Temperatur Niederschläge Wind Luftdruck Luftfeuchtigkeit
    00:00 +26°C° 0 mm 2 m/S 756 mmHg 93%
    01:00 +26°C° 0 mm 1 m/S 755 mmHg 93%
    02:00 +26°C° 0 mm 1 m/S 755 mmHg 93%
    03:00 +26°C° 0 mm 1 m/S 754 mmHg 94%
    04:00 +26°C° 0 mm 1 m/S 755 mmHg 94%
    05:00 +26°C° 0 mm 1 m/S 755 mmHg 94%
    06:00 +26°C° 0 mm 1 m/S 755 mmHg 95%
    07:00 +27°C° 0 mm 2 m/S 756 mmHg 88%
    08:00 +29°C° 0 mm 2 m/S 756 mmHg 82%
    09:00 +30°C° 0 mm 2 m/S 757 mmHg 76%
    10:00 +31°C° 0.3 mm 2 m/S 756 mmHg 73%
    11:00 +32°C° 0.3 mm 2 m/S 756 mmHg 70%
    12:00 +34°C° 0.3 mm 3 m/S 755 mmHg 67%
    13:00 +32°C° 1.1 mm 2 m/S 754 mmHg 70%
    14:00 +32°C° 1.1 mm 2 m/S 754 mmHg 73%
    15:00 +32°C° 1.1 mm 2 m/S 753 mmHg 75%
    16:00 +31°C° 0.5 mm 2 m/S 753 mmHg 79%
    17:00 +30°C° 0.5 mm 2 m/S 753 mmHg 82%
    18:00 +29°C° 0.5 mm 2 m/S 754 mmHg 86%
    19:00 +28°C° 0.1 mm 2 m/S 754 mmHg 88%
    20:00 +28°C° 0.1 mm 2 m/S 755 mmHg 90%
    21:00 +27°C° 0.1 mm 2 m/S 755 mmHg 92%
    22:00 +27°C° 0 mm 2 m/S 755 mmHg 92%
    23:00 +27°C° 0 mm 2 m/S 755 mmHg 92%
    Mehr zeigen